Time,TemperatureF,DewpointF,PressureIn,WindDirection,WindDirectionDegrees,WindSpeedMPH,WindSpeedGustMPH,Humidity,HourlyPrecipIn,Conditions,Clouds,dailyrainin,SoftwareType,DateUTC
2013-11-15 00:13:00,30.0,19.0,30.19,ENE,69,0.0,0.0,62,0.00,,,0.00,,2013-11-15 05:13:00,
2013-11-15 00:23:00,30.0,19.0,30.19,ENE,68,0.0,0.0,63,0.00,,,0.00,,2013-11-15 05:23:00,
2013-11-15 00:43:00,30.0,19.0,30.19,ENE,68,0.0,0.0,64,0.00,,,0.00,,2013-11-15 05:43:00,
2013-11-15 00:53:00,30.0,20.0,30.18,ENE,69,0.0,0.0,65,0.00,,,0.00,,2013-11-15 05:53:00,
2013-11-15 01:12:00,29.0,19.0,30.18,ENE,60,0.0,0.0,67,0.00,,,0.00,,2013-11-15 06:12:00,
2013-11-15 01:23:00,29.0,19.0,30.18,ENE,60,0.0,0.0,67,0.00,,,0.00,,2013-11-15 06:23:00,
2013-11-15 01:43:00,28.0,19.0,30.19,ENE,60,0.0,0.0,69,0.00,,,0.00,,2013-11-15 06:43:00,
2013-11-15 01:53:00,28.0,20.0,30.19,ENE,60,0.0,0.0,70,0.00,,,0.00,,2013-11-15 06:53:00,
2013-11-15 02:12:00,28.0,20.0,30.19,NE,52,0.0,1.0,73,0.00,,,0.00,,2013-11-15 07:12:00,
2013-11-15 02:22:00,28.0,19.0,30.19,NE,52,0.0,1.0,69,0.00,,,0.00,,2013-11-15 07:22:00,
2013-11-15 02:42:00,28.0,20.0,30.19,NE,52,0.0,1.0,70,0.00,,,0.00,,2013-11-15 07:42:00,
2013-11-15 02:52:00,28.0,20.0,30.20,NE,50,0.0,0.0,72,0.00,,,0.00,,2013-11-15 07:52:00,
2013-11-15 03:11:00,28.0,20.0,30.19,ESE,122,0.0,1.0,71,0.00,,,0.00,,2013-11-15 08:11:00,
2013-11-15 03:22:00,27.0,20.0,30.19,ENE,68,0.0,0.0,76,0.00,,,0.00,,2013-11-15 08:22:00,
2013-11-15 03:42:00,27.0,21.0,30.19,ENE,66,0.0,0.0,78,0.00,,,0.00,,2013-11-15 08:42:00,
2013-11-15 03:52:00,27.0,20.0,30.20,ENE,66,0.0,0.0,76,0.00,,,0.00,,2013-11-15 08:52:00,
2013-11-15 04:22:00,27.0,21.0,30.20,NE,43,0.0,1.0,78,0.00,,,0.00,,2013-11-15 09:22:00,
2013-11-15 04:43:00,27.0,21.0,30.20,SE,131,0.0,1.0,79,0.00,,,0.00,,2013-11-15 09:43:00,
2013-11-15 04:53:00,27.0,20.0,30.20,SE,127,0.0,0.0,76,0.00,,,0.00,,2013-11-15 09:53:00,
2013-11-15 05:12:00,27.0,21.0,30.20,ESE,123,0.0,1.0,79,0.00,,,0.00,,2013-11-15 10:12:00,
2013-11-15 05:23:00,27.0,21.0,30.20,ESE,120,0.0,1.0,78,0.00,,,0.00,,2013-11-15 10:23:00,
2013-11-15 05:43:00,28.0,21.0,30.20,ESE,119,0.0,0.0,76,0.00,,,0.00,,2013-11-15 10:43:00,
2013-11-15 05:52:00,27.0,21.0,30.20,ESE,113,0.0,1.0,77,0.00,,,0.00,,2013-11-15 10:52:00,
2013-11-15 06:12:00,26.0,20.0,30.21,ESE,106,0.0,1.0,78,0.00,,,0.00,,2013-11-15 11:12:00,
2013-11-15 06:22:00,27.0,20.0,30.22,ESE,113,0.0,0.0,76,0.00,,,0.00,,2013-11-15 11:22:00,
2013-11-15 06:42:00,27.0,21.0,30.22,ESE,112,0.0,0.0,77,0.00,,,0.00,,2013-11-15 11:42:00,
2013-11-15 06:52:00,26.0,20.0,30.22,ESE,117,0.0,0.0,79,0.00,,,0.00,,2013-11-15 11:52:00,
2013-11-15 07:12:00,27.0,21.0,30.22,ENE,63,0.0,1.0,79,0.00,,,0.00,,2013-11-15 12:12:00,
2013-11-15 07:22:00,27.0,21.0,30.22,ENE,63,0.0,1.0,79,0.00,,,0.00,,2013-11-15 12:22:00,
2013-11-15 07:42:00,26.0,21.0,30.23,ENE,60,0.0,1.0,80,0.00,,,0.00,,2013-11-15 12:42:00,
2013-11-15 07:52:00,27.0,21.0,30.23,ENE,60,0.0,0.0,78,0.00,,,0.00,,2013-11-15 12:52:00,
2013-11-15 08:11:00,29.0,22.0,30.23,NE,45,0.0,1.0,75,0.00,,,0.00,,2013-11-15 13:11:00,
2013-11-15 08:22:00,30.0,23.0,30.23,NE,46,0.0,0.0,75,0.00,,,0.00,,2013-11-15 13:22:00,
2013-11-15 08:42:00,31.0,23.0,30.23,East,80,0.0,1.0,72,0.00,,,0.00,,2013-11-15 13:42:00,
2013-11-15 08:52:00,32.0,24.0,30.24,East,98,0.0,0.0,72,0.00,,,0.00,,2013-11-15 13:52:00,
2013-11-15 09:12:00,34.0,24.0,30.24,East,98,0.0,-999.0,67,-99.99,,,-99.99,,2013-11-15 14:12:00,
2013-11-15 09:22:00,35.0,25.0,30.24,East,96,0.0,0.0,67,0.00,,,0.00,,2013-11-15 14:22:00,
2013-11-15 09:42:00,38.0,26.0,30.24,NE,45,0.0,1.0,62,0.00,,,0.00,,2013-11-15 14:42:00,
2013-11-15 09:52:00,41.0,26.0,30.25,West,277,0.0,1.0,55,0.00,,,0.00,,2013-11-15 14:52:00,
2013-11-15 10:12:00,42.0,26.0,30.25,WNW,286,0.0,1.0,53,0.00,,,0.00,,2013-11-15 15:12:00,
2013-11-15 10:22:00,44.0,26.0,30.24,SW,233,0.0,1.0,48,0.00,,,0.00,,2013-11-15 15:22:00,
2013-11-15 10:43:00,46.0,25.0,30.24,West,272,1.0,2.0,44,0.00,,,0.00,,2013-11-15 15:43:00,
2013-11-15 10:53:00,47.0,26.0,30.23,SW,221,0.0,3.0,43,0.00,,,0.00,,2013-11-15 15:53:00,
2013-11-15 11:13:00,49.0,27.0,30.23,SSE,160,1.0,4.0,42,0.00,,,0.00,,2013-11-15 16:13:00,
2013-11-15 11:23:00,50.0,26.0,30.22,SE,134,3.0,5.0,39,0.00,,,0.00,,2013-11-15 16:23:00,
2013-11-15 11:43:00,52.0,25.0,30.22,SW,236,1.0,6.0,35,0.00,,,0.00,,2013-11-15 16:43:00,
2013-11-15 11:53:00,53.0,26.0,30.21,SSE,153,0.0,5.0,35,0.00,,,0.00,,2013-11-15 16:53:00,
2013-11-15 12:12:00,53.0,25.0,30.20,WSW,245,2.0,8.0,34,0.00,,,0.00,,2013-11-15 17:12:00,
2013-11-15 12:22:00,53.0,25.0,30.19,ESE,105,2.0,6.0,34,0.00,,,0.00,,2013-11-15 17:22:00,
2013-11-15 12:42:00,54.0,26.0,30.19,ESE,110,1.0,6.0,33,0.00,,,0.00,,2013-11-15 17:42:00,
2013-11-15 12:52:00,54.0,25.0,30.18,ESE,115,4.0,9.0,32,0.00,,,0.00,,2013-11-15 17:52:00,
2013-11-15 13:12:00,56.0,25.0,30.17,SE,131,3.0,7.0,30,0.00,,,0.00,,2013-11-15 18:12:00,
2013-11-15 13:22:00,56.0,23.0,30.16,West,273,3.0,8.0,27,0.00,,,0.00,,2013-11-15 18:22:00,
2013-11-15 13:42:00,57.0,23.0,30.16,ESE,108,3.0,8.0,27,0.00,,,0.00,,2013-11-15 18:42:00,
2013-11-15 13:52:00,57.0,22.0,30.16,SW,231,2.0,7.0,25,0.00,,,0.00,,2013-11-15 18:52:00,
2013-11-15 14:12:00,56.0,21.0,30.16,WSW,255,2.0,10.0,25,0.00,,,0.00,,2013-11-15 19:12:00,
2013-11-15 14:21:00,57.0,22.0,30.16,West,259,3.0,9.0,25,0.00,,,0.00,,2013-11-15 19:21:00,
2013-11-15 14:42:00,57.0,22.0,30.16,SW,221,1.0,6.0,26,0.00,,,0.00,,2013-11-15 19:42:00,
2013-11-15 14:52:00,57.0,22.0,30.16,SSW,209,1.0,6.0,26,0.00,,,0.00,,2013-11-15 19:52:00,
2013-11-15 15:12:00,57.0,22.0,30.15,WSW,249,3.0,8.0,25,0.00,,,0.00,,2013-11-15 20:12:00,
2013-11-15 15:22:00,57.0,22.0,30.15,South,181,3.0,10.0,25,0.00,,,0.00,,2013-11-15 20:22:00,
2013-11-15 15:32:00,57.0,22.0,30.15,South,181,3.0,10.0,25,0.00,,,0.00,,2013-11-15 20:32:00,
2013-11-15 15:42:00,57.0,22.0,30.15,South,181,3.0,10.0,25,0.00,,,0.00,,2013-11-15 20:42:00,
2013-11-15 15:52:00,56.0,22.0,30.15,WSW,252,4.0,10.0,26,0.00,,,0.00,,2013-11-15 20:52:00,
2013-11-15 16:12:00,55.0,22.0,30.15,WSW,253,3.0,6.0,27,0.00,,,0.00,,2013-11-15 21:12:00,
2013-11-15 16:22:00,55.0,22.0,30.16,WSW,252,4.0,8.0,27,0.00,,,0.00,,2013-11-15 21:22:00,
2013-11-15 16:43:00,55.0,23.0,30.16,South,189,2.0,7.0,29,0.00,,,0.00,,2013-11-15 21:43:00,
2013-11-15 16:54:00,53.0,23.0,30.17,WSW,244,1.0,6.0,31,0.00,,,0.00,,2013-11-15 21:54:00,
2013-11-15 17:14:00,52.0,23.0,30.17,WSW,257,1.0,4.0,32,0.00,,,0.00,,2013-11-15 22:14:00,
2013-11-15 17:24:00,52.0,25.0,30.16,WSW,253,1.0,3.0,34,0.00,,,0.00,,2013-11-15 22:24:00,
2013-11-15 17:43:00,51.0,24.0,30.17,WSW,246,0.0,2.0,35,0.00,,,0.00,,2013-11-15 22:43:00,
2013-11-15 17:53:00,50.0,24.0,30.18,SW,214,0.0,1.0,36,0.00,,,0.00,,2013-11-15 22:53:00,
2013-11-15 18:12:00,49.0,25.0,30.18,SSW,208,0.0,1.0,38,0.00,,,0.00,,2013-11-15 23:12:00,
2013-11-15 18:22:00,48.0,25.0,30.18,SSW,211,0.0,1.0,40,0.00,,,0.00,,2013-11-15 23:22:00,
2013-11-15 18:43:00,47.0,25.0,30.19,SW,229,0.0,1.0,41,0.00,,,0.00,,2013-11-15 23:43:00,
2013-11-15 18:52:00,46.0,25.0,30.19,SSW,199,0.0,0.0,43,0.00,,,0.00,,2013-11-15 23:52:00,
2013-11-15 19:11:00,44.0,25.0,30.18,SSW,199,0.0,0.0,46,0.00,,,0.00,,2013-11-16 00:11:00,
2013-11-15 19:22:00,42.0,25.0,30.18,SSW,199,0.0,0.0,51,0.00,,,0.00,,2013-11-16 00:22:00,
2013-11-15 19:42:00,41.0,26.0,30.18,SSW,199,0.0,0.0,54,0.00,,,0.00,,2013-11-16 00:42:00,
2013-11-15 19:52:00,41.0,26.0,30.18,West,259,0.0,1.0,54,0.00,,,0.00,,2013-11-16 00:52:00,
2013-11-15 20:12:00,43.0,24.0,30.20,WSW,240,0.0,2.0,47,0.00,,,0.00,,2013-11-16 01:12:00,
2013-11-15 20:22:00,43.0,26.0,30.20,West,271,0.0,1.0,50,0.00,,,0.00,,2013-11-16 01:22:00,
2013-11-15 20:42:00,41.0,26.0,30.20,NW,304,0.0,1.0,55,0.00,,,0.00,,2013-11-16 01:42:00,
2013-11-15 20:52:00,42.0,26.0,30.21,West,266,0.0,2.0,53,0.00,,,0.00,,2013-11-16 01:52:00,
2013-11-15 21:12:00,44.0,27.0,30.20,West,281,0.0,2.0,51,0.00,,,0.00,,2013-11-16 02:12:00,
2013-11-15 21:22:00,40.0,26.0,30.21,WNW,297,0.0,1.0,58,0.00,,,0.00,,2013-11-16 02:22:00,
2013-11-15 21:42:00,41.0,26.0,30.21,West,274,0.0,1.0,54,0.00,,,0.00,,2013-11-16 02:42:00,
2013-11-15 21:52:00,40.0,26.0,30.21,WNW,290,0.0,1.0,56,0.00,,,0.00,,2013-11-16 02:52:00,
2013-11-15 22:11:00,40.0,26.0,30.21,NW,304,0.0,0.0,56,0.00,,,0.00,,2013-11-16 03:11:00,
2013-11-15 22:22:00,37.0,25.0,30.21,NNW,343,0.0,1.0,61,0.00,,,0.00,,2013-11-16 03:22:00,
2013-11-15 22:44:00,35.0,26.0,30.21,North,3,0.0,1.0,68,0.00,,,0.00,,2013-11-16 03:44:00,
2013-11-15 22:55:00,35.0,26.0,30.21,North,3,0.0,0.0,69,0.00,,,0.00,,2013-11-16 03:55:00,
2013-11-15 23:24:00,34.0,26.0,30.22,North,3,0.0,0.0,71,0.00,,,0.00,,2013-11-16 04:24:00,
2013-11-15 23:43:00,33.0,25.0,30.23,North,3,0.0,0.0,72,0.00,,,0.00,,2013-11-16 04:43:00,
2013-11-15 23:53:00,33.0,25.0,30.23,North,3,0.0,0.0,72,0.00,,,0.00,,2013-11-16 04:53:00,